Location: Mountain View
(37.3861°N, 122.0839°W)
Time: 09:50:14
(UTC-07:00)

N. Korean satellite - Visible Passes

Search period start: 23 October 2018 00:00
Search period end: 02 November 2018 00:00
Orbit: 459 x 510 km, 97.2° (Epoch: 22 October)

Date Brightness Start Highest point End Pass type
(mag) Time Alt. Az. Time Alt. Az. Time Alt. Az.
23 Oct 10.4 06:26:58 10° ENE 06:28:17 12° E 06:29:35 10° ESE visible
24 Oct 9.9 19:42:03 10° SW 19:44:28 16° W 19:46:54 10° NW visible
25 Oct 8.7 19:16:32 10° SSW 19:19:55 33° W 19:23:20 10° NNW visible
26 Oct 9.7 06:45:46 10° NE 06:48:33 21° E 06:51:17 10° SE visible
26 Oct 7.0 18:51:44 10° S 18:55:27 73° W 18:59:11 10° NNW visible
27 Oct 10.7 06:23:47 10° E 06:23:56 10° E 06:24:04 10° E visible
28 Oct 9.8 19:37:30 10° SW 19:40:09 18° W 19:42:48 10° NW visible
29 Oct 8.4 19:12:07 10° SSW 19:15:36 37° W 19:19:05 10° NNW visible
30 Oct 9.8 06:41:38 10° NE 06:44:11 18° E 06:46:40 10° SE visible
30 Oct 6.8 18:47:25 10° S 18:51:08 83° W 18:54:53 10° NNW visible
01 Nov 9.5 19:32:57 10° SW 19:35:47 20° W 19:38:37 10° NW visible
